PBO Station Position Time Series. Reference Frame : NAM14
Format Version,1.1.1
4-character ID,P338
Station name,WeavrvlAirCN2005
Begin Date, 2005-09-22
End Date, 2023-06-26
Release Date, 2023-06-27
Reference position, 40.7475530095 North Latitude, -122.9230293931 East Longitude, 672.22086 meters elevation,
Date, North (mm), East (mm), Vertical (mm), North Std. Deviation (mm), East Std. Deviation (mm),              Vertical Std. Deviation (mm), Quality,
2005-09-22,0.00, 0.00, 0.00, 2.13, 1.59, 7.18, repro,
2005-09-23,-1.21, -0.52, 3.74, 2.30, 1.77, 8.06, repro,
2005-09-24,37.41, -29.03, -113.15, 67.28, 229.34, 291.83, repro,
2005-12-15,-0.10, 0.24, -9.03, 2.19, 1.63, 7.39, repro,
2005-12-16,-0.99, -0.65, -4.63, 2.14, 1.57, 7.15, repro,
2005-12-17,-1.00, -0.23, -1.99, 2.20, 1.66, 7.33, repro,
2005-12-18,-0.89, -0.17, -11.69, 2.19, 1.67, 7.39, repro,
2005-12-19,-1.23, 1.66, -5.95, 2.26, 1.74, 7.50, repro,
2005-12-20,-0.03, 0.37, -14.97, 2.20, 1.70, 7.41, repro,
2005-12-21,-3.07, 1.70, -9.47, 2.15, 1.70, 7.28, repro,
2005-12-22,0.28, 0.96, -8.08, 2.19, 1.70, 7.32, repro,
2005-12-23,1.08, -0.51, -15.62, 2.24, 1.71, 7.47, repro,
2005-12-24,-0.55, 1.30, -16.80, 2.34, 1.84, 7.98, repro,
2005-12-25,-1.00, 1.46, -10.07, 2.20, 1.68, 7.39, repro,
2005-12-26,-0.03, -1.04, -7.89, 2.17, 1.62, 7.21, repro,
2005-12-27,-0.45, 1.38, -12.34, 2.22, 1.72, 7.49, repro,
2005-12-28,-1.98, 1.28, -17.22, 2.19, 1.67, 7.25, repro,
2005-12-29,-0.95, -0.94, -13.38, 2.28, 1.75, 7.69, repro,
2005-12-30,-2.69, 3.41, -13.81, 2.35, 1.81, 7.95, repro,
2005-12-31,-1.46, 1.33, 0.06, 2.31, 1.80, 7.90, repro,
2006-01-01,-0.63, 0.38, -12.01, 2.24, 1.74, 7.62, repro,
2006-01-02,0.30, 0.79, -8.90, 2.20, 1.68, 7.23, repro,
2006-01-03,-2.19, 0.71, -13.06, 2.37, 1.88, 7.94, repro,
2006-01-04,-2.94, 2.29, -30.48, 2.27, 1.80, 7.59, repro,
2006-01-05,-0.98, 2.65, -19.17, 2.23, 1.75, 7.56, repro,
2006-01-06,-0.84, 0.75, -13.17, 2.33, 1.86, 8.09, repro,
2006-01-07,1.62, -0.32, -17.22, 2.17, 1.68, 7.31, repro,
2006-01-08,-0.07, 2.71, -12.03, 2.25, 1.79, 7.62, repro,
2006-01-09,0.19, 1.49, -10.67, 2.26, 1.77, 7.71, repro,
2006-01-10,1.06, 1.68, -15.54, 2.28, 1.78, 7.73, repro,
2006-01-11,1.62, -1.01, -14.84, 2.31, 1.81, 7.87, repro,
2006-01-12,0.97, 1.30, -18.55, 2.24, 1.75, 7.47, repro,
2006-01-13,-0.06, 2.41, -7.15, 2.31, 1.82, 7.94, repro,
2006-01-14,0.07, 2.09, -8.88, 2.18, 1.66, 7.27, repro,
2006-01-15,3.67, 1.71, -16.56, 2.15, 1.61, 7.13, repro,
2006-01-16,0.40, 1.72, -16.61, 2.26, 1.82, 7.63, repro,
2006-01-17,-0.85, 1.45, -7.08, 2.25, 1.73, 7.47, repro,
2006-01-18,2.37, 1.56, -19.40, 2.17, 1.62, 7.18, repro,
2006-01-19,0.23, 1.84, -10.67, 2.20, 1.61, 7.32, repro,
2006-01-20,-1.12, 2.58, -13.69, 2.18, 1.61, 7.29, repro,
2006-01-21,2.12, 2.95, -19.32, 2.15, 1.59, 7.12, repro,
2006-01-22,2.03, 1.93, -12.57, 2.15, 1.58, 7.05, repro,
2006-01-23,0.95, 2.85, -13.58, 2.16, 1.58, 7.12, repro,
2006-01-24,1.25, 2.80, -17.28, 2.20, 1.63, 7.32, repro,
2006-01-25,-1.26, 2.07, -9.59, 2.09, 1.54, 6.97, repro,
2006-01-26,0.15, 2.55, -14.75, 2.08, 1.54, 6.95, repro,
2006-01-27,4.19, -0.44, -26.65, 2.08, 1.55, 6.96, repro,
2006-01-28,2.35, 1.39, -28.10, 2.11, 1.55, 7.02, repro,
2006-01-29,0.08, 1.81, -22.07, 2.11, 1.54, 6.97, repro,
2006-01-30,-0.24, 1.26, -16.74, 2.10, 1.53, 7.00, repro,
2006-01-31,0.53, 0.84, -16.31, 2.11, 1.54, 7.04, repro,
2006-02-01,-0.38, 2.45, -7.11, 2.16, 1.60, 7.22, repro,
2006-02-02,2.20, -0.53, -12.59, 2.09, 1.55, 7.06, repro,
2006-02-03,0.04, 1.94, -11.64, 2.12, 1.54, 7.04, repro,
2006-02-04,-0.53, 0.06, -10.95, 2.11, 1.53, 7.05, repro,
2006-02-05,-0.26, 2.13, -17.58, 2.11, 1.53, 7.05, repro,
2006-02-06,0.25, 2.78, -16.22, 2.09, 1.54, 7.04, repro,
2006-02-07,0.36, 2.23, -17.44, 2.09, 1.54, 7.03, repro,
2006-02-08,0.23, 2.46, -20.13, 2.10, 1.54, 7.06, repro,
2006-02-09,0.64, 1.62, -20.40, 2.18, 1.55, 7.24, repro,
2006-02-10,0.06, 2.31, -16.62, 2.24, 1.58, 7.35, repro,
2006-02-11,-0.49, 1.86, -19.58, 2.11, 1.54, 7.09, repro,
2006-02-12,-0.78, 2.57, -18.50, 2.11, 1.54, 7.07, repro,
2006-02-13,-0.17, 1.59, -19.27, 2.11, 1.53, 7.06, repro,
2006-02-14,0.71, 1.09, -9.08, 2.11, 1.53, 7.10, repro,
2006-02-15,-1.21, 2.71, -8.50, 2.13, 1.52, 7.10, repro,
2006-02-16,-0.69, 2.30, -13.37, 2.11, 1.52, 7.05, repro,
2006-02-17,-0.66, 2.34, -11.43, 2.11, 1.53, 7.06, repro,
2006-02-18,-0.62, 2.38, -12.37, 2.12, 1.54, 7.08, repro,
2006-02-19,0.07, 1.96, -16.03, 2.13, 1.55, 7.16, repro,
2006-02-20,-0.28, 2.56, -12.28, 2.13, 1.53, 7.15, repro,
2006-02-21,-0.43, 3.64, -8.09, 2.11, 1.53, 7.09, repro,
2006-02-22,0.52, 3.83, -9.76, 2.15, 1.57, 7.21, repro,
2006-02-23,1.06, 3.27, -8.11, 2.12, 1.54, 7.14, repro,
2006-02-24,-0.04, 2.79, -14.19, 2.10, 1.54, 7.10, repro,
2006-02-25,1.35, 3.29, -10.97, 2.12, 1.54, 7.10, repro,
2006-02-26,-1.39, 2.80, -7.20, 2.11, 1.53, 7.09, repro,
2006-02-27,-0.11, 1.55, -7.40, 2.11, 1.54, 7.08, repro,
2006-02-28,-0.66, 2.38, -5.13, 2.15, 1.55, 7.21, repro,
2006-03-01,-1.28, 3.05, -7.79, 2.23, 1.61, 7.43, repro,
2006-03-02,0.27, 4.35, -16.59, 2.09, 1.54, 7.08, repro,
2006-03-03,0.33, 1.71, -14.89, 2.18, 1.54, 7.28, repro,
2006-03-04,1.49, 2.31, -19.21, 2.10, 1.54, 7.06, repro,
2006-03-05,-2.39, 1.82, -17.41, 2.11, 1.55, 7.10, repro,
2006-03-06,-0.38, 2.66, -13.53, 2.12, 1.56, 7.19, repro,
2006-03-07,0.23, 3.02, -17.55, 2.11, 1.57, 7.18, repro,
2006-03-08,-0.67, 2.12, -18.11, 2.10, 1.55, 7.12, repro,
2006-03-09,1.18, -1.00, -10.37, 2.10, 1.55, 7.10, repro,
2006-03-10,1.40, 2.12, -11.49, 2.10, 1.54, 7.08, repro,
2006-03-11,0.54, 2.74, -11.36, 2.17, 1.56, 7.24, repro,
2006-03-12,0.69, 1.15, -16.65, 2.15, 1.57, 7.23, repro,
2006-03-13,0.16, 2.78, -12.59, 2.15, 1.57, 7.23, repro,
2006-03-14,1.15, 2.75, -18.21, 2.14, 1.57, 7.25, repro,
2006-03-15,0.05, 2.15, -15.29, 2.15, 1.56, 7.22, repro,
2006-03-16,-1.41, 2.61, -14.89, 2.22, 1.61, 7.46, repro,
2006-03-17,-0.33, 3.03, -21.48, 2.21, 1.61, 7.44, repro,
2006-03-18,2.27, 3.22, -26.29, 2.15, 1.58, 7.26, repro,
2006-03-19,1.34, 1.22, -19.57, 2.14, 1.59, 7.33, repro,
2006-03-20,0.31, 1.26, -17.32, 2.13, 1.58, 7.27, repro,
2006-03-21,-1.11, 2.36, -11.68, 2.13, 1.58, 7.19, repro,
2006-03-22,-0.91, 2.11, -20.56, 2.13, 1.59, 7.26, repro,
2006-03-23,0.31, 3.80, -12.88, 2.19, 1.62, 7.34, repro,
2006-03-24,1.13, 2.63, -16.84, 2.21, 1.62, 7.42, repro,
2006-03-25,-0.08, 1.26, -14.04, 2.20, 1.63, 7.45, repro,
2006-03-26,0.88, 1.16, -15.82, 2.19, 1.61, 7.37, repro,
2006-03-27,-0.73, 2.55, -10.30, 2.18, 1.63, 7.33, repro,
2006-03-28,-1.36, 2.07, -14.43, 2.11, 1.60, 7.17, repro,
2006-03-29,-0.56, 2.16, -9.65, 2.07, 1.57, 7.09, repro,
2006-03-30,-0.33, 2.09, -10.46, 2.06, 1.57, 7.10, repro,
2006-03-31,0.72, 2.46, -14.21, 2.06, 1.57, 7.11, repro,
2006-04-01,-1.02, 2.74, -14.36, 2.06, 1.56, 7.07, repro,
2006-04-02,-0.71, 2.39, -12.60, 2.06, 1.57, 7.09, repro,
2006-04-03,0.47, 2.63, -17.68, 2.08, 1.57, 7.13, repro,
2006-04-04,-0.32, 2.05, -12.13, 2.08, 1.57, 7.09, repro,
2006-04-05,-0.22, 2.21, -10.16, 2.07, 1.57, 7.13, repro,
2006-04-06,1.02, 2.56, -13.14, 2.11, 1.60, 7.31, repro,
2006-04-07,0.10, 2.58, -13.38, 2.18, 1.62, 7.47, repro,
2006-04-08,-0.24, 2.22, -15.01, 2.19, 1.61, 7.46, repro,
2006-04-09,0.36, 2.77, -16.07, 2.06, 1.56, 7.09, repro,
2006-04-10,0.56, 2.32, -9.91, 2.08, 1.57, 7.19, repro,
2006-04-11,-0.32, 1.19, -11.08, 2.13, 1.61, 7.41, repro,
2006-04-12,0.10, 2.76, -15.45, 2.11, 1.60, 7.36, repro,
2006-04-13,0.02, 1.85, -16.02, 2.05, 1.56, 7.09, repro,
2006-04-14,0.68, 0.27, -18.74, 2.06, 1.57, 7.15, repro,
2006-04-15,1.76, 2.44, -7.52, 2.14, 1.61, 7.33, repro,
2006-04-16,2.02, 1.42, -12.70, 2.08, 1.58, 7.20, repro,
2006-04-17,0.68, 0.57, -16.31, 2.06, 1.56, 7.13, repro,
2006-04-18,1.01, 2.23, -20.13, 2.06, 1.56, 7.10, repro,
2006-04-19,1.07, 3.37, -17.57, 2.05, 1.57, 7.12, repro,
2006-04-20,0.48, 2.33, -16.02, 2.09, 1.61, 7.28, repro,
2006-04-21,0.94, 2.26, -17.51, 2.07, 1.57, 7.18, repro,
2006-04-22,1.48, 3.21, -16.22, 2.07, 1.56, 7.13, repro,
2006-04-23,1.01, 3.47, -15.56, 2.10, 1.61, 7.29, repro,
2006-04-24,2.29, 3.21, -14.45, 2.08, 1.60, 7.21, repro,
2006-04-25,1.31, 3.84, -15.18, 2.14, 1.67, 7.44, repro,
2006-04-26,0.98, 3.05, -13.55, 2.13, 1.61, 7.32, repro,
2006-04-27,1.73, 2.78, -17.71, 2.18, 1.63, 7.44, repro,
2006-04-28,1.30, 3.28, -16.08, 2.12, 1.57, 7.21, repro,
2006-04-29,1.47, 2.11, -19.22, 2.06, 1.57, 7.15, repro,
2006-04-30,0.51, 4.08, -16.22, 2.08, 1.60, 7.27, repro,
2006-05-01,1.26, 2.19, -18.60, 2.06, 1.56, 7.10, repro,
2006-05-02,0.94, 1.61, -17.80, 2.08, 1.58, 7.24, repro,
2006-05-03,1.16, 2.13, -15.99, 2.06, 1.57, 7.18, repro,
2006-05-04,0.47, 2.84, -17.24, 2.06, 1.57, 7.16, repro,
2006-05-05,2.24, 2.63, -13.74, 2.09, 1.57, 7.20, repro,
2006-05-06,0.87, 2.30, -10.10, 2.18, 1.71, 7.77, repro,
2006-05-07,1.47, 0.68, -17.21, 2.06, 1.57, 7.17, repro,
2006-05-08,1.26, 2.72, -16.02, 2.10, 1.58, 7.29, repro,
2006-05-09,0.27, 2.38, -13.07, 2.11, 1.59, 7.25, repro,
2006-05-10,2.72, 2.79, -14.71, 2.07, 1.56, 7.14, repro,
2006-05-11,1.85, 2.33, -20.50, 2.06, 1.56, 7.14, repro,
2006-05-12,0.61, 1.91, -17.70, 2.07, 1.57, 7.21, repro,
2006-05-13,1.45, 1.52, -15.35, 2.08, 1.62, 7.44, repro,
2006-05-14,0.39, 3.01, -11.15, 2.07, 1.57, 7.20, repro,
2006-05-15,1.14, 3.29, -15.78, 2.07, 1.57, 7.20, repro,
2006-05-16,0.14, 2.31, -15.19, 2.10, 1.61, 7.37, repro,
2006-05-17,-0.12, 1.83, -9.57, 2.13, 1.65, 7.50, repro,
2006-05-18,1.16, 3.06, -9.16, 2.13, 1.65, 7.51, repro,
2006-05-19,0.00, 2.71, -8.01, 2.17, 1.61, 7.43, repro,
2006-05-20,-0.90, 2.62, -8.53, 2.13, 1.59, 7.27, repro,
2006-05-21,-0.50, 4.09, -13.54, 2.12, 1.59, 7.24, repro,
2006-05-22,1.06, 2.90, -4.63, 2.14, 1.58, 7.26, repro,
2006-05-23,-1.70, 1.10, -4.75, 2.13, 1.60, 7.28, repro,
2006-05-24,0.84, 3.14, -16.42, 2.14, 1.61, 7.40, repro,
2006-05-25,1.15, 2.42, -13.16, 2.25, 1.67, 7.72, repro,
2006-05-26,2.30, 0.32, -19.69, 2.19, 1.64, 7.51, repro,
2006-05-27,2.32, -0.03, -8.62, 2.13, 1.60, 7.32, repro,
2006-05-28,0.94, 2.63, -5.58, 2.13, 1.59, 7.28, repro,
2006-05-29,1.14, 1.82, -12.63, 2.13, 1.60, 7.39, repro,
2006-05-30,-1.02, 2.42, -14.16, 2.20, 1.62, 7.48, repro,
2006-05-31,-1.17, 2.85, -10.57, 2.18, 1.63, 7.50, repro,
2006-06-01,0.15, 1.78, -5.02, 2.17, 1.63, 7.46, repro,
2006-06-02,3.15, 2.51, -15.37, 2.31, 1.72, 7.90, repro,
2006-06-03,1.61, 4.22, -5.45, 2.19, 1.62, 7.49, repro,
2006-06-04,-0.39, 0.94, -8.28, 2.20, 1.63, 7.59, repro,
2006-06-05,0.47, 2.80, -12.21, 2.19, 1.64, 7.58, repro,
2006-06-06,-0.79, 2.36, -6.42, 2.16, 1.62, 7.43, repro,
2006-06-07,2.50, 0.08, -19.75, 2.23, 1.68, 7.70, repro,
2006-06-08,1.58, 1.00, -8.09, 2.16, 1.59, 7.26, repro,
2006-06-09,-1.08, 1.04, -10.47, 2.19, 1.63, 7.53, repro,
2006-06-10,1.04, 2.31, -5.13, 2.12, 1.59, 7.30, repro,
2006-06-11,-1.29, 2.60, -0.93, 2.16, 1.63, 7.50, repro,
2006-06-12,1.41, 2.21, -4.26, 2.18, 1.63, 7.45, repro,
2006-06-13,0.18, 1.93, -5.54, 2.21, 1.64, 7.53, repro,
2006-06-14,-0.86, 1.30, -9.24, 2.13, 1.59, 7.28, repro,
2006-06-15,0.57, 0.48, 0.70, 2.12, 1.59, 7.30, repro,
2006-06-16,-0.39, 1.20, -4.37, 2.12, 1.60, 7.34, repro,
2006-06-17,0.12, 2.17, -4.66, 2.15, 1.61, 7.42, repro,
2006-06-18,-1.01, 2.37, -0.12, 2.16, 1.64, 7.57, repro,
2006-06-19,-0.32, 1.79, -5.40, 2.15, 1.65, 7.52, repro,
2006-06-20,1.22, 1.73, -4.54, 2.14, 1.64, 7.53, repro,
2006-06-21,0.92, 1.33, -2.72, 2.14, 1.65, 7.53, repro,
2006-06-22,-0.55, 1.49, -2.76, 2.17, 1.65, 7.60, repro,
2006-06-23,1.81, 2.02, -13.66, 2.17, 1.64, 7.58, repro,
2006-06-24,-2.06, 1.37, -12.08, 2.20, 1.71, 7.78, repro,
2006-06-25,0.37, 0.78, -13.78, 2.14, 1.64, 7.53, repro,
2006-06-26,-0.24, 0.28, -6.50, 2.14, 1.64, 7.52, repro,
2006-06-27,-0.24, 2.17, -3.44, 2.16, 1.65, 7.61, repro,
2006-06-28,-0.14, 5.55, -10.28, 2.21, 1.69, 7.83, repro,
2006-06-29,-1.17, 2.80, 2.14, 2.22, 1.75, 8.08, repro,
2006-06-30,-0.36, 1.06, -11.73, 2.10, 1.60, 7.37, repro,
2006-07-01,0.78, 3.03, -8.97, 2.11, 1.61, 7.41, repro,
2006-07-02,0.32, 1.80, -6.15, 2.13, 1.66, 7.54, repro,
2006-07-03,0.40, -0.18, -12.20, 2.14, 1.62, 7.52, repro,
2006-07-04,-0.81, 0.99, -8.59, 2.13, 1.61, 7.46, repro,
2006-07-05,1.02, 1.59, -3.64, 2.10, 1.60, 7.38, repro,
2006-07-06,-0.86, 1.43, -21.58, 2.10, 1.60, 7.39, repro,
2006-07-07,0.80, 1.05, -7.45, 2.12, 1.60, 7.47, repro,
2006-07-08,0.76, 0.51, -15.75, 2.12, 1.61, 7.49, repro,
2006-07-09,0.08, 1.08, -10.11, 2.14, 1.63, 7.59, repro,
2006-07-10,-1.79, -0.25, -16.25, 2.12, 1.61, 7.50, repro,
2006-07-11,-2.12, 0.60, 0.62, 2.12, 1.60, 7.49, repro,
2006-07-12,-0.67, 1.35, -5.24, 2.13, 1.61, 7.53, repro,
2006-07-13,0.35, 1.19, -4.63, 2.11, 1.60, 7.47, repro,
2006-07-14,1.03, 0.69, -3.65, 2.21, 1.66, 7.84, repro,
2006-07-15,-0.09, 1.21, -10.41, 2.12, 1.60, 7.45, repro,
2006-07-16,-1.03, 1.04, -10.05, 2.10, 1.60, 7.42, repro,
2006-07-17,0.63, 1.18, -4.78, 2.14, 1.64, 7.69, repro,
2006-07-18,0.59, 1.78, 2.92, 2.08, 1.58, 7.29, repro,
2006-07-19,0.86, 0.70, -2.35, 2.07, 1.57, 7.26, repro,
2006-07-20,0.44, 0.50, -7.91, 2.05, 1.58, 7.22, repro,
2006-07-21,0.63, 2.47, -7.28, 2.05, 1.57, 7.19, repro,
2006-07-22,0.31, 0.93, -7.81, 2.04, 1.56, 7.14, repro,
2006-07-23,-0.19, 1.25, -7.50, 2.11, 1.59, 7.37, repro,
2006-07-24,4.50, -2.97, -9.41, 2.14, 1.65, 7.58, repro,
2006-07-25,0.81, 0.69, 1.51, 2.07, 1.58, 7.33, repro,
2006-07-26,1.86, 0.89, 4.04, 2.06, 1.58, 7.24, repro,
2006-07-27,0.45, -0.90, -2.96, 2.06, 1.58, 7.21, repro,
2006-07-28,0.67, 1.92, -5.16, 2.07, 1.57, 7.25, repro,
2006-07-29,-0.51, 1.35, 0.83, 2.06, 1.58, 7.20, repro,
2006-07-30,0.70, 1.83, -8.16, 2.11, 1.64, 7.47, repro,
2006-07-31,1.49, 1.00, 2.95, 2.06, 1.58, 7.26, repro,
2006-08-01,-0.65, 2.33, -2.02, 2.05, 1.57, 7.19, repro,
2006-08-02,0.46, 1.42, 0.77, 2.08, 1.61, 7.46, repro,
2006-08-03,1.81, 0.22, -7.74, 2.16, 1.63, 7.72, repro,
2006-08-04,0.82, -0.04, -1.81, 2.18, 1.69, 7.83, repro,
2006-08-05,0.46, 0.05, -1.26, 2.12, 1.68, 7.63, repro,
2006-08-06,-0.46, 2.02, -5.51, 2.11, 1.63, 7.59, repro,
2006-08-07,-1.47, 0.33, 10.26, 2.21, 1.80, 8.21, repro,
2006-08-08,-0.20, 0.77, -6.68, 2.13, 1.62, 7.47, repro,
2006-08-09,0.39, 3.05, -8.28, 2.13, 1.63, 7.48, repro,
2006-08-10,-0.60, 1.09, -4.39, 2.06, 1.59, 7.31, repro,
2006-08-11,-0.62, 2.39, -0.70, 2.05, 1.58, 7.21, repro,
2006-08-12,-0.36, 0.66, -4.19, 2.07, 1.59, 7.26, repro,
2006-08-13,0.30, 0.77, 1.09, 2.10, 1.62, 7.32, repro,
2006-08-14,-1.12, 1.39, 3.13, 2.11, 1.63, 7.45, repro,
2006-08-15,-0.41, 1.80, 5.00, 2.14, 1.60, 7.45, repro,
2006-08-16,-0.31, 0.90, -11.06, 2.05, 1.58, 7.23, repro,
2006-08-17,0.32, 1.11, -4.50, 2.10, 1.62, 7.37, repro,
2006-08-18,-1.40, 0.90, -2.05, 2.12, 1.67, 7.46, repro,
2006-08-19,-0.53, 1.22, -4.38, 2.05, 1.57, 7.21, repro,
2006-08-20,1.07, 1.94, 6.24, 2.07, 1.59, 7.28, repro,
2006-08-21,0.27, 2.31, -2.95, 2.06, 1.61, 7.34, repro,
2006-08-22,0.18, 1.09, 0.87, 2.07, 1.60, 7.31, repro,
2006-08-23,-0.83, 2.02, 9.05, 2.05, 1.59, 7.22, repro,
2006-08-24,-1.56, 2.08, -2.07, 2.10, 1.65, 7.45, repro,
2006-08-25,-0.11, 0.78, 8.31, 2.10, 1.63, 7.56, repro,
2006-08-26,-2.00, 0.76, 6.40, 2.11, 1.68, 7.69, repro,
2006-08-27,0.18, 0.45, -0.83, 2.12, 1.69, 7.75, repro,
2006-08-28,-0.64, 1.67, -1.85, 2.14, 1.71, 7.72, repro,
2006-08-29,-0.24, 0.77, -4.61, 2.13, 1.68, 7.65, repro,
2006-08-30,-0.58, 1.86, 7.26, 2.15, 1.69, 7.75, repro,
2006-08-31,-0.35, 0.87, 0.50, 2.14, 1.69, 7.75, repro,
2006-09-01,-0.64, 0.58, -1.22, 2.14, 1.72, 7.82, repro,
2006-09-02,-2.08, 0.21, 0.32, 2.20, 1.72, 7.84, repro,
2006-09-03,-0.28, 1.15, -1.89, 2.14, 1.69, 7.67, repro,
2006-09-04,0.95, 1.72, -7.36, 2.21, 1.71, 7.84, repro,
2006-09-05,0.58, 1.28, -5.20, 2.22, 1.72, 7.93, repro,
2006-09-06,1.08, 2.06, -4.74, 2.13, 1.71, 7.74, repro,
2006-09-07,0.49, -0.94, 9.04, 2.19, 1.75, 8.05, repro,
2006-09-08,1.67, -0.46, 10.07, 2.18, 1.73, 7.96, repro,
2006-09-09,-1.10, 0.00, 2.10, 2.09, 1.63, 7.36, repro,
2006-09-10,0.99, 0.27, -1.27, 2.11, 1.64, 7.49, repro,
2006-09-11,-0.21, 0.78, -3.64, 2.10, 1.66, 7.52, repro,
2006-09-12,-0.80, 0.83, 1.78, 2.08, 1.65, 7.42, repro,
2006-09-13,-0.08, 0.27, 5.56, 2.10, 1.64, 7.46, repro,
2006-09-14,-0.25, -1.50, 6.54, 2.18, 1.66, 7.56, repro,
2006-09-15,1.26, 1.63, -8.46, 2.15, 1.64, 7.46, repro,
2006-09-16,-0.97, 2.44, 6.17, 2.07, 1.61, 7.33, repro,
2006-09-17,-0.86, 0.99, 2.46, 2.07, 1.62, 7.34, repro,
2006-09-18,-1.00, 1.09, 3.73, 2.06, 1.61, 7.29, repro,
2006-09-19,2.92, -0.20, 11.63, 2.07, 1.60, 7.30, repro,
2006-09-20,1.27, -0.73, -1.16, 2.09, 1.64, 7.45, repro,
2006-09-21,3.37, -1.01, 1.72, 2.21, 1.72, 7.82, repro,
2006-09-22,1.92, 2.80, 5.43, 2.16, 1.69, 7.61, repro,
2006-09-23,0.31, 2.02, 3.38, 2.13, 1.65, 7.51, repro,
2006-09-24,0.07, 1.61, 2.42, 2.18, 1.65, 7.48, repro,
2006-09-25,0.34, 0.32, 3.23, 2.19, 1.65, 7.56, repro,
2006-09-26,-0.37, 0.45, 1.09, 2.13, 1.64, 7.41, repro,
2006-09-27,0.25, 0.72, -1.11, 2.14, 1.65, 7.46, repro,
2006-09-28,-1.12, 1.51, 8.13, 2.13, 1.64, 7.44, repro,
2006-09-29,-0.79, 0.67, 9.20, 2.18, 1.64, 7.47, repro,
2006-09-30,-1.11, 0.63, 13.61, 2.14, 1.65, 7.57, repro,
2006-10-01,0.15, 1.17, 0.48, 2.09, 1.62, 7.36, repro,
2006-10-02,0.38, 0.76, 4.00, 2.13, 1.70, 7.55, repro,
2006-10-03,-0.13, 1.85, 5.88, 2.22, 1.75, 7.89, repro,
2006-10-04,-0.41, 1.61, 7.73, 2.09, 1.62, 7.38, repro,
2006-10-05,0.17, 0.21, 9.31, 2.09, 1.60, 7.29, repro,
2006-10-06,-0.76, 1.31, 8.18, 2.09, 1.60, 7.29, repro,
2006-10-07,-1.48, 0.84, -7.90, 2.13, 1.67, 7.53, repro,
2006-10-08,-1.12, 0.97, 2.61, 2.13, 1.68, 7.57, repro,
2006-10-09,0.48, 1.30, -3.83, 2.17, 1.69, 7.56, repro,
2006-10-10,1.84, 1.14, 1.04, 2.13, 1.63, 7.38, repro,
2006-10-11,0.39, 1.30, 2.80, 2.12, 1.65, 7.51, repro,
2006-10-12,-1.49, 0.96, 7.48, 2.13, 1.63, 7.35, repro,
2006-10-13,-1.26, 0.36, 10.08, 2.10, 1.63, 7.40, repro,
2006-10-14,-0.01, 0.40, 7.81, 2.11, 1.66, 7.55, repro,
2006-10-15,-1.63, 0.63, 14.82, 2.09, 1.65, 7.49, repro,
2006-10-16,1.20, -0.61, 4.94, 2.12, 1.62, 7.39, repro,
2006-10-17,-2.94, 1.33, 8.08, 2.19, 1.67, 7.94, repro,
2006-10-18,0.69, 1.92, 1.23, 2.04, 1.60, 7.33, repro,
2006-10-19,0.35, 0.52, 4.28, 2.28, 1.70, 8.06, repro,
2006-10-20,0.22, 0.66, -0.78, 2.30, 1.78, 8.58, repro,
2006-10-21,-0.69, 0.97, 2.32, 2.19, 1.67, 7.90, repro,
2006-10-22,-0.67, 1.07, -2.86, 2.12, 1.68, 7.67, repro,
2006-10-23,0.05, 0.82, 2.57, 2.06, 1.66, 7.52, repro,
2006-10-24,-0.88, 0.54, 10.89, 2.26, 1.70, 7.99, repro,
2006-10-25,0.18, 1.70, 7.75, 2.27, 1.72, 8.06, repro,
2006-10-26,0.37, 1.04, 5.84, 2.16, 1.74, 7.90, repro,
2006-10-27,1.18, 1.74, -3.52, 2.12, 1.71, 7.66, repro,
2006-10-28,-0.50, 1.86, 2.12, 2.27, 1.77, 8.13, repro,
2006-10-29,-1.56, 1.96, 8.71, 2.07, 1.63, 7.50, repro,
2006-10-30,-1.14, 0.72, 3.97, 2.04, 1.60, 7.31, repro,
2006-10-31,-1.38, 1.12, 4.91, 2.10, 1.67, 7.59, repro,
2006-11-01,-0.44, 0.94, 12.31, 2.10, 1.67, 7.62, repro,
2006-11-02,-0.77, 1.37, 6.44, 2.07, 1.62, 7.43, repro,
2006-11-03,-0.46, 2.13, 6.62, 2.10, 1.68, 7.62, repro,
2006-11-04,-1.39, 0.88, 3.82, 2.15, 1.68, 7.66, repro,
2006-11-05,-1.57, -0.73, -6.78, 2.17, 1.72, 7.90, repro,
2006-11-06,-0.85, 0.48, 0.56, 2.04, 1.62, 7.36, repro,
2006-11-07,0.54, 2.66, -5.07, 2.23, 1.75, 7.92, repro,
2006-11-08,-0.17, -2.50, 2.02, 2.16, 1.69, 7.71, repro,
2006-11-09,1.32, -2.72, 3.17, 2.17, 1.67, 7.67, repro,
2006-11-10,-0.61, 1.11, 5.91, 2.12, 1.63, 7.50, repro,
2006-11-11,0.60, 1.27, -0.65, 2.17, 1.68, 7.67, repro,
2006-11-12,-1.94, 1.09, 0.23, 2.20, 1.73, 7.75, repro,
2006-11-13,-1.49, 3.32, -15.26, 2.19, 1.68, 7.60, repro,
2006-11-14,1.63, 0.28, -4.50, 2.10, 1.65, 7.55, repro,
2006-11-15,-1.35, 1.03, 2.91, 2.03, 1.59, 7.21, repro,
2006-11-16,1.82, 1.91, -3.00, 2.04, 1.61, 7.30, repro,
2006-11-17,0.61, 0.14, -1.17, 2.03, 1.60, 7.22, repro,
2006-11-18,-0.17, 0.61, -7.61, 2.03, 1.59, 7.17, repro,
2006-11-19,-1.21, 1.11, -5.27, 2.03, 1.59, 7.21, repro,
2006-11-20,-0.87, 1.28, -6.41, 2.03, 1.60, 7.23, repro,
2006-11-21,1.94, 0.15, 2.15, 2.05, 1.61, 7.28, repro,
2006-11-22,-1.85, 0.69, -4.13, 2.04, 1.62, 7.30, repro,
2006-11-23,-0.09, -1.62, -6.99, 2.04, 1.64, 7.37, repro,
2006-11-24,-0.69, 0.38, -4.21, 2.11, 1.68, 7.60, repro,
2006-11-25,0.90, -0.85, 0.34, 2.10, 1.66, 7.46, repro,
2006-11-26,0.47, 1.56, -7.08, 2.08, 1.62, 7.37, repro,
2006-11-27,1.55, -6.06, -13.00, 2.08, 1.63, 7.37, repro,
2006-11-28,2.21, -6.22, -13.72, 2.03, 1.60, 7.22, repro,
2006-11-29,0.27, 1.21, -3.52, 2.01, 1.59, 7.13, repro,
2006-11-30,0.56, -0.15, -9.99, 2.02, 1.60, 7.19, repro,
2006-12-01,3.34, -2.42, -12.99, 2.04, 1.62, 7.31, repro,
2006-12-02,-0.50, 0.53, -14.26, 2.05, 1.63, 7.35, repro,
2006-12-03,0.64, 0.65, -7.72, 2.05, 1.62, 7.31, repro,
2006-12-04,-0.81, 0.88, -11.86, 2.05, 1.62, 7.26, repro,
2006-12-05,-0.59, 1.18, -7.70, 2.04, 1.66, 7.33, repro,
2006-12-06,1.15, -0.03, -7.48, 2.09, 1.74, 7.63, repro,
2006-12-07,-0.51, 0.10, -11.32, 2.07, 1.70, 7.49, repro,
2006-12-08,-0.48, 0.73, -2.68, 2.07, 1.68, 7.49, repro,
2006-12-09,-1.85, 0.48, -3.87, 2.09, 1.69, 7.46, repro,
2006-12-10,0.39, -2.37, -2.95, 2.09, 1.69, 7.44, repro,
2006-12-11,-0.39, -0.23, -6.99, 2.03, 1.63, 7.31, repro,
2006-12-12,-0.30, 1.23, -9.29, 2.11, 1.71, 7.56, repro,
2006-12-13,1.26, 1.84, -6.60, 2.04, 1.68, 7.41, repro,
2006-12-14,5.37, 3.04, -7.82, 2.02, 1.63, 7.26, repro,
2006-12-15,-0.15, -0.54, -7.38, 2.07, 1.71, 7.47, repro,
2006-12-16,0.61, -0.71, -7.36, 2.10, 1.70, 7.49, repro,
2006-12-17,-0.38, 0.80, -7.35, 2.12, 1.80, 7.91, repro,
2006-12-18,-0.80, 0.96, -7.42, 2.24, 1.88, 8.26, repro,
2006-12-19,1.11, 0.87, -3.91, 2.16, 1.87, 8.11, repro,
2006-12-20,0.87, 0.08, -13.40, 2.12, 1.79, 7.60, repro,
2006-12-21,-0.57, -0.26, -18.98, 2.03, 1.73, 7.45, repro,
2006-12-22,-0.97, 0.86, -10.24, 2.15, 1.86, 8.06, repro,
2006-12-23,-0.28, 2.21, -9.29, 2.14, 1.81, 7.89, repro,
2006-12-24,1.71, 1.62, -13.68, 2.04, 1.64, 7.31, repro,
2006-12-25,-2.60, 1.71, -16.89, 2.07, 1.75, 7.53, repro,
2006-12-26,-0.70, 1.15, -10.18, 2.05, 1.70, 7.48, repro,
2006-12-27,2.96, -1.91, -7.26, 2.10, 1.74, 7.69, repro,
2006-12-28,1.11, 0.40, -7.51, 2.22, 1.91, 8.34, repro,
2006-12-29,1.46, -0.19, -20.81, 2.11, 1.73, 7.71, repro,
2006-12-30,0.97, 0.22, -12.99, 2.11, 1.74, 7.67, repro,
2006-12-31,0.61, 1.40, -9.15, 2.27, 1.96, 8.53, repro,
2007-01-01,0.97, 0.79, -13.71, 2.21, 1.88, 8.10, repro,
2007-01-02,1.14, -0.47, -12.50, 2.19, 1.89, 8.18, repro,
2007-01-03,1.14, -1.16, -7.97, 2.05, 1.70, 7.55, repro,
2007-01-04,3.80, -4.58, -17.38, 2.02, 1.66, 7.43, repro,
2007-01-05,2.93, -0.07, -16.21, 2.08, 1.76, 7.74, repro,
2007-01-06,5.42, -4.90, -17.22, 2.07, 1.76, 7.64, repro,
2007-01-07,-0.29, 2.13, -16.05, 2.06, 1.65, 7.35, repro,
2007-01-08,0.88, 0.72, -15.24, 2.08, 1.68, 7.47, repro,
2007-01-09,-0.08, 0.84, -20.51, 2.08, 1.65, 7.37, repro,
2007-01-10,1.69, 0.56, -24.66, 2.10, 1.68, 7.46, repro,
2007-01-11,1.78, -3.27, -15.07, 2.12, 1.65, 7.42, repro,
2007-01-12,1.17, 0.63, -10.21, 2.02, 1.60, 7.17, repro,
2007-01-13,1.03, 0.42, -18.23, 1.99, 1.58, 7.03, repro,
2007-01-14,0.94, 0.88, -17.52, 2.00, 1.58, 7.06, repro,
2007-01-15,1.69, 0.17, -21.08, 2.00, 1.58, 7.08, repro,
2007-01-16,0.60, 1.34, -21.29, 2.04, 1.59, 7.13, repro,
2007-01-17,0.25, -0.09, -10.93, 2.02, 1.62, 7.23, repro,
2007-01-18,1.30, -0.29, -22.76, 2.06, 1.66, 7.38, repro,
2007-01-19,1.74, 0.88, -10.52, 2.06, 1.59, 7.34, repro,
2007-01-20,1.91, -0.29, -17.27, 2.04, 1.60, 7.30, repro,
2007-01-21,1.67, 1.78, -13.42, 1.99, 1.57, 7.02, repro,
2007-01-22,0.11, 1.80, -11.23, 1.99, 1.57, 6.97, repro,
2007-01-23,-0.13, 0.89, -13.77, 1.99, 1.58, 7.06, repro,
2007-01-24,-0.37, 1.36, -19.30, 2.01, 1.59, 7.11, repro,
2007-01-25,-0.08, 1.96, -17.63, 2.04, 1.63, 7.17, repro,
2007-01-26,0.74, 0.96, -11.86, 1.99, 1.57, 7.00, repro,
2007-01-27,1.20, 1.41, -11.87, 2.00, 1.58, 7.02, repro,
2007-01-28,0.07, 1.43, -14.70, 1.99, 1.57, 6.97, repro,
2007-01-29,0.35, 2.83, -15.54, 2.00, 1.57, 6.99, repro,
2007-01-30,1.27, 1.32, -11.75, 1.98, 1.57, 6.94, repro,
2007-01-31,0.43, 0.78, -7.08, 1.98, 1.56, 6.89, repro,
2007-02-01,-0.45, 2.26, -4.94, 2.02, 1.61, 7.11, repro,
2007-02-02,-0.18, 2.48, -9.88, 2.04, 1.60, 7.18, repro,
2007-02-03,0.33, 2.34, -14.73, 2.03, 1.60, 7.16, repro,
2007-02-04,0.21, 2.35, -12.04, 1.99, 1.57, 6.94, repro,
2007-02-05,-0.79, 2.32, -16.97, 1.98, 1.57, 6.92, repro,